Zurück zum Katalog

THORAD AGENA D DEB

AktivPO
NORAD 4921·DEBRIS·🇺🇸 United States

Gestartet Apr 8, 1970 von Vandenberg Space Force Base

Loading…

Nächste Überflüge (nächste 24 Stunden)

TLE

AktuellSource: Space-Track

Epoche: Sep 14, 2026, 05:57 UTC

1 04921U 70025FT  26257.24819233  .00003784  00000-0  86668-3 0  9993
2 04921  99.7399  86.3130 0036006 177.5782 182.5591 14.55967002888540

Verfolge THORAD AGENA D DEB in Echtzeit mit AllMySat

Download on the App Store